[[{"header":{"parameterUnit":"m.s-1","parameterCategory":1,"la1":30.2991,"la2":30.254,"lo1":-89.0895,"lo2":-89.0444,"dy":0.0017,"dx":0.0017,"nx":28,"ny":28,"refTime":"2025-11-27T09:00:00:Z","depth":0,"parameterNumber":2,"parameterNumberName":"U-component_of_WINDS"},"data":[0,0,0,0,0,0,0,0,0,0,0,0,0,0,0,0,0,0,0,0,0,0,0,0,0,0,0,0,0,0,0,0,0,0,0,0,0,0,0,0,0,0,0,0,0,0,0,0,0,0,0,0,0,0,0,0,0,0,-2.577,-2.5771,0,-2.5847,-2.5848,-2.5848,-2.5761,-2.5758,-2.5755,-2.5752,-2.5831,-2.5836,-2.5841,0,0,0,0,0,0,0,0,0,0,0,0,0,-2.5548,-2.5552,-2.577,-2.5771,-2.5772,-2.5847,-2.5848,-2.5849,-2.5762,-2.5758,-2.5754,-2.575,-2.5829,-2.5835,-2.5842,0,0,0,0,0,0,0,0,0,0,0,0,0,-2.5637,-2.5554,-2.577,-2.5738,-2.5736,-2.5846,-2.5848,-2.5849,-2.5763,-2.5758,-2.5753,-2.5748,-2.5827,-2.5835,-2.5842,-2.5989,0,0,-2.5866,-2.5869,0,0,0,0,0,0,0,0,-2.5632,-2.5645,-2.5741,-2.574,-2.5738,-2.5789,-2.5798,-2.5896,-2.5764,-2.5753,-2.5752,-2.5746,-2.5821,-2.5829,-2.5854,-2.5993,-2.5996,-2.5867,-2.5872,-2.5875,-2.5877,0,0,0,0,0,0,0,-2.5626,-2.5641,-2.58,-2.5743,-2.5741,-2.5719,-2.5726,-2.5816,-2.5814,-2.5753,-2.5747,-2.5757,-2.5819,-2.5847,-2.5856,-2.5997,-2.5867,-2.5873,-2.5878,-2.5881,-2.6259,-2.6264,0,0,0,0,0,0,-2.5623,-2.5637,-2.5798,-2.5803,-2.5672,-2.5727,-2.5735,-2.5778,-2.5812,-2.5813,-2.5761,-2.5753,-2.5836,-2.5847,-2.5858,-2.6032,-2.5875,-2.5882,-2.5887,-2.6253,-2.626,-2.6266,0,0,0,0,0,0,-2.5619,-2.5638,-2.5795,-2.5718,-2.5736,-2.5736,-2.5785,-2.5782,-2.581,-2.5819,-2.5818,-2.579,-2.5833,-2.5847,-2.5957,-2.6034,-2.5886,-2.5893,-2.6247,-2.6255,-2.6263,-2.6381,0,0,0,0,0,0,-2.5613,-2.5637,-2.5694,-2.572,-2.5741,-2.5893,-2.579,-2.5787,-2.5823,-2.5813,-2.5846,-2.5846,-2.583,-2.5946,-2.5965,-2.6042,-2.5899,-2.624,-2.6251,-2.626,-2.6371,-2.6393,-2.6411,0,0,0,0,0,-2.5605,-2.5724,-2.5697,-2.5717,-2.5811,-2.5898,-2.591,-2.5888,-2.583,-2.5886,-2.5891,-2.5845,-2.6022,-2.5958,-2.5978,-2.6059,-2.6235,-2.6248,-2.6259,-2.6362,-2.6388,-2.6411,0,0,0,0,0,0,-2.5708,-2.5727,-2.5697,-2.5828,-2.5862,-2.5883,-2.5954,-2.5917,-2.5969,-2.5957,-2.5928,-2.5936,-2.6053,-2.6066,-2.5995,-2.6202,-2.6119,-2.6136,-2.619,-2.6215,-2.6235,-2.623,-2.5905,0,0,0,0,0,-2.5745,-2.5814,-2.5827,-2.5942,-2.596,-2.5954,-2.5991,-2.5972,-2.6006,-2.602,-2.6033,-2.6068,-2.613,-2.6173,-2.6231,-2.6371,-2.6377,-2.6436,-2.6457,-2.6473,-2.6489,-2.6563,-2.659,-2.6305,-2.6305,-2.6305,0,0,-2.5824,-2.5843,-2.5889,-2.5963,-2.5987,-2.6059,-2.5967,-2.6047,-2.61,-2.6032,-2.6137,-2.6147,-2.6184,-2.6309,-2.6365,-2.6324,-2.6568,-2.6489,-2.6502,-2.6508,-2.6578,-2.6605,-2.6629,-2.6313,-2.6312,-2.6311,0,0,-2.6006,-2.6027,-2.6124,-2.615,-2.6187,-2.6181,-2.6205,-2.6231,-2.6236,-2.634,-2.629,-2.6352,-2.6461,-2.6489,-2.6518,-2.6707,-2.6667,-2.6727,-2.6834,-2.6907,-2.6929,-2.6949,-2.7017,-2.7042,-2.6742,-2.6742,-2.6742,0,-2.61,-2.6206,-2.6179,-2.6263,-2.6297,-2.6237,-2.6336,-2.6361,-2.6416,-2.6441,-2.6393,-2.6528,-2.6549,-2.668,-2.6726,-2.6751,-2.6776,-2.6725,-2.6928,-2.6948,-2.6966,-2.7031,-2.7056,-2.6749,-2.6748,-2.6748,-2.6747,0,-2.632,-2.6395,-2.6469,-2.6523,-2.6565,-2.6656,-2.6642,-2.6687,-2.6663,-2.6663,-2.6769,-2.6791,-2.6853,-2.6882,-2.686,-2.701,-2.6983,-2.6932,-2.6849,-2.7001,-2.7061,-2.7086,-2.676,-2.6757,-2.6755,-2.6753,0,0,-2.6571,-2.6607,-2.6635,-2.6658,-2.6694,-2.6751,-2.6838,-2.6898,-2.6938,-2.6976,-2.7049,-2.7142,-2.7095,-2.7127,-2.7107,-2.7171,-2.732,-2.7112,-2.7112,-2.7151,-2.7487,-2.7526,-2.7556,-2.7292,-2.7296,-2.73,-2.7484,0,-2.6754,-2.6906,-2.6883,-2.703,-2.7099,-2.7041,-2.7117,-2.7147,-2.7148,-2.7206,-2.7206,-2.7273,-2.7205,-2.7225,-2.7285,-2.7289,-2.7387,-2.7275,-2.736,-2.7364,-2.7355,-2.7587,-2.7629,-2.7802,-2.7508,-2.7512,-2.7514,0,-2.6989,-2.7035,-2.7189,-2.7212,-2.724,-2.7309,-2.7362,-2.7418,-2.7449,-2.7445,-2.7481,-2.7448,-2.7535,-2.7448,-2.7567,-2.7492,-2.7524,-2.7531,-2.7537,-2.7546,-2.745,-2.7604,-2.7857,-2.7883,-2.7551,-2.7548,-2.7546,0,-2.7158,-2.7259,-2.7364,-2.7385,-2.7415,-2.7465,-2.7479,-2.7506,-2.7543,-2.7588,-2.7612,-2.7667,-2.7698,-2.774,-2.7723,-2.7661,-2.7846,-2.7757,-2.7846,-2.7847,-2.7889,-2.7887,-2.8153,-2.7908,-2.7907,-2.7907,-2.7906,0,-2.7366,-2.7463,-2.744,-2.7505,-2.7611,-2.7583,-2.7688,-2.7696,-2.772,-2.7785,-2.7737,-2.7799,-2.7772,-2.7831,-2.7818,-2.7919,-2.7933,-2.7932,-2.7928,-2.7938,-2.7938,-2.7961,-2.7949,-2.7914,-2.7912,-2.7911,-2.791,0,-2.7574,-2.7563,-2.7674,-2.7692,-2.7699,-2.7777,-2.7792,-2.7852,-2.7848,-2.7931,-2.7949,-2.7943,-2.8011,-2.7997,-2.8072,-2.8062,-2.8189,-2.8169,-2.8179,-2.8175,-2.8264,-2.8257,-2.8555,-2.8593,-2.8322,-2.8325,-2.8327,0,-2.7709,-2.7782,-2.7808,-2.7847,-2.7866,-2.7931,-2.7968,-2.7942,-2.7982,-2.8023,-2.8078,-2.8141,-2.8191,-2.8301,-2.8304,-2.836,-2.8342,-2.8443,-2.8351,-2.8358,-2.8345,-2.8342,-2.8349,-2.8462,-2.8465,-2.8468,-2.847,0,-2.7949,-2.794,-2.7995,-2.8049,-2.8095,-2.8136,-2.8172,-2.8207,-2.8184,-2.8232,-2.83,-2.8338,-2.8413,-2.8477,-2.8528,-2.8543,-2.8503,-2.8498,-2.8522,-2.8534,-2.8537,-2.8537,-2.8231,-2.8492,-2.849,-2.8488,-2.8487,-2.8486,-2.8126,-2.8188,-2.8216,-2.8279,-2.8303,-2.8337,-2.8395,-2.8398,-2.8454,-2.8514,-2.8494,-2.8572,-2.86,-2.8665,-2.8685,-2.8745,-2.8708,-2.8742,-2.8751,-2.876,-2.8772,-2.8525,-2.8755,-2.8754,-2.8753,-2.8753,-2.8752,0,-2.8365,-2.8379,-2.8438,-2.849,-2.8539,-2.8495,-2.8533,-2.8577,-2.8646,-2.8675,-2.8725,-2.8803,-2.8863,-2.8869,-2.8926,-2.8973,-2.8956,-2.8989,-2.8986,-2.899,-2.8802,-2.8776,-2.9002,-2.9002,-2.9002,-2.9002,-2.9002,-2.9002,-2.8496,-2.8598,-2.8591,-2.8705,-2.8718,-2.8794,-2.8819,-2.885,-2.8873,-2.8963,-2.9013,-2.9016,-2.9036,-2.9093,-2.9147,-2.9147,-2.917,-2.9211,-2.9204,-2.9028,-2.9004,-2.898,-2.8956,-2.9216,-2.9216,-2.9388,-2.939,-2.9391]},{"header":{"parameterUnit":"m.s-1","parameterCategory":1,"la1":30.2991,"la2":30.254,"lo1":-89.0895,"lo2":-89.0444,"dy":0.0017,"dx":0.0017,"nx":28,"ny":28,"refTime":"2025-11-27T09:00:00:Z","depth":0,"parameterNumber":3,"parameterNumberName":"V-component_of_WINDS"},"data":[0,0,0,0,0,0,0,0,0,0,0,0,0,0,0,0,0,0,0,0,0,0,0,0,0,0,0,0,0,0,0,0,0,0,0,0,0,0,0,0,0,0,0,0,0,0,0,0,0,0,0,0,0,0,0,0,0,0,-7.5359,-7.5361,0,-7.5501,-7.5502,-7.5504,-7.5379,-7.5374,-7.5369,-7.5364,-7.5502,-7.551,-7.5519,0,0,0,0,0,0,0,0,0,0,0,0,0,-7.4973,-7.4981,-7.5359,-7.5361,-7.5363,-7.5501,-7.5502,-7.5504,-7.538,-7.5374,-7.5367,-7.5362,-7.5499,-7.5509,-7.5519,0,0,0,0,0,0,0,0,0,0,0,0,0,-7.513,-7.4983,-7.5359,-7.5317,-7.5315,-7.55,-7.5503,-7.5505,-7.5381,-7.5374,-7.5366,-7.5359,-7.5496,-7.5508,-7.5521,-7.5752,0,0,-7.5559,-7.5565,0,0,0,0,0,0,0,0,-7.5122,-7.5145,-7.5322,-7.532,-7.5318,-7.5415,-7.5417,-7.5587,-7.5383,-7.5356,-7.5364,-7.5355,-7.5479,-7.5492,-7.5535,-7.5758,-7.5764,-7.556,-7.5568,-7.5574,-7.5577,0,0,0,0,0,0,0,-7.5111,-7.5138,-7.5415,-7.5324,-7.5322,-7.5289,-7.5303,-7.5449,-7.5458,-7.5358,-7.5349,-7.5368,-7.5476,-7.5524,-7.5538,-7.5766,-7.556,-7.5571,-7.5579,-7.5584,-7.6185,-7.6193,0,0,0,0,0,0,-7.5105,-7.5129,-7.541,-7.5419,-7.5199,-7.5302,-7.5318,-7.5391,-7.5456,-7.5459,-7.5374,-7.5361,-7.5506,-7.5523,-7.5542,-7.5817,-7.5573,-7.5585,-7.5593,-7.6176,-7.6186,-7.6195,0,0,0,0,0,0,-7.5097,-7.5132,-7.5405,-7.5272,-7.5304,-7.5317,-7.5401,-7.5398,-7.5445,-7.5469,-7.5469,-7.5421,-7.55,-7.5524,-7.5701,-7.582,-7.5591,-7.5603,-7.6166,-7.6179,-7.6191,-7.6368,0,0,0,0,0,0,-7.5087,-7.5129,-7.5219,-7.5275,-7.5312,-7.5564,-7.5408,-7.5406,-7.5468,-7.5453,-7.5513,-7.5516,-7.5496,-7.5683,-7.5714,-7.5833,-7.5612,-7.6156,-7.6172,-7.6187,-7.6352,-7.6385,-7.6414,0,0,0,0,0,-7.5074,-7.5262,-7.5225,-7.5259,-7.5425,-7.5571,-7.5592,-7.5568,-7.5478,-7.5568,-7.5583,-7.5514,-7.5802,-7.5702,-7.5735,-7.5861,-7.6148,-7.6168,-7.6186,-7.6338,-7.6379,-7.6413,0,0,0,0,0,0,-7.5217,-7.5269,-7.5228,-7.544,-7.5503,-7.555,-7.5662,-7.5612,-7.5699,-7.568,-7.5644,-7.5659,-7.5845,-7.587,-7.5758,-7.6087,-7.596,-7.5987,-7.6064,-7.6103,-7.6134,-7.6124,-7.5623,0,0,0,0,0,-7.5274,-7.5391,-7.5429,-7.5612,-7.5646,-7.5649,-7.5712,-7.5688,-7.575,-7.5775,-7.5802,-7.5863,-7.5967,-7.6036,-7.6133,-7.6354,-7.6365,-7.6457,-7.6488,-7.6513,-7.6536,-7.6654,-7.6695,-7.6257,-7.6257,-7.6257,0,0,-7.5392,-7.5435,-7.551,-7.5643,-7.5688,-7.5808,-7.5672,-7.5804,-7.5892,-7.5794,-7.5963,-7.5986,-7.6051,-7.6251,-7.634,-7.6278,-7.666,-7.6537,-7.6557,-7.6567,-7.6678,-7.6719,-7.6756,-7.627,-7.6268,-7.6266,0,0,-7.5668,-7.5713,-7.5871,-7.592,-7.5991,-7.5992,-7.603,-7.6086,-7.6098,-7.6267,-7.6196,-7.6298,-7.6479,-7.6528,-7.6577,-7.6872,-7.6811,-7.6904,-7.7066,-7.7182,-7.7216,-7.7246,-7.7351,-7.7389,-7.6927,-7.6927,-7.6928,0,-7.5805,-7.5986,-7.5958,-7.6097,-7.6156,-7.6075,-7.6234,-7.6281,-7.638,-7.6422,-7.635,-7.6575,-7.6613,-7.6823,-7.6896,-7.6938,-7.6978,-7.6897,-7.7214,-7.7244,-7.7272,-7.7371,-7.7411,-7.6938,-7.6937,-7.6936,-7.6935,0,-7.615,-7.6276,-7.6395,-7.6495,-7.6567,-7.6715,-7.6708,-7.6784,-7.6754,-7.6761,-7.6934,-7.6977,-7.7081,-7.7129,-7.71,-7.7336,-7.7294,-7.7219,-7.7091,-7.7325,-7.7418,-7.7456,-7.6954,-7.695,-7.6947,-7.6944,0,0,-7.6521,-7.6605,-7.6649,-7.6693,-7.6766,-7.6861,-7.7004,-7.7109,-7.7175,-7.7245,-7.7363,-7.7517,-7.7448,-7.7504,-7.7479,-7.758,-7.7811,-7.7492,-7.7493,-7.755,-7.8072,-7.8128,-7.8173,-7.7771,-7.7778,-7.7784,-7.8066,0,-7.68,-7.7052,-7.7032,-7.7269,-7.7384,-7.7308,-7.7432,-7.7489,-7.75,-7.7597,-7.7607,-7.7717,-7.7618,-7.7651,-7.7748,-7.7762,-7.7915,-7.7741,-7.7878,-7.7884,-7.7865,-7.8221,-7.8281,-7.8546,-7.8102,-7.8108,-7.8113,0,-7.716,-7.7246,-7.7495,-7.7551,-7.7598,-7.7711,-7.7804,-7.7899,-7.796,-7.7961,-7.8024,-7.7981,-7.8122,-7.7992,-7.8185,-7.8068,-7.8122,-7.8137,-7.8147,-7.8159,-7.8013,-7.8242,-7.8629,-7.8669,-7.817,-7.8165,-7.8161,0,-7.7405,-7.7583,-7.7755,-7.7795,-7.7864,-7.7945,-7.7977,-7.8031,-7.8095,-7.8176,-7.8217,-7.8312,-7.8364,-7.8438,-7.8422,-7.8328,-7.8619,-7.8487,-7.8622,-7.8623,-7.8687,-7.8683,-7.9088,-7.8722,-7.8722,-7.8721,-7.872,0,-7.7719,-7.7875,-7.7866,-7.7973,-7.8144,-7.8117,-7.8287,-7.8308,-7.8358,-7.8465,-7.8404,-7.8505,-7.8477,-7.8577,-7.8565,-7.8726,-7.875,-7.8753,-7.8748,-7.8759,-7.8758,-7.8794,-7.8775,-7.8732,-7.8729,-7.8727,-7.8725,0,-7.8023,-7.8024,-7.8206,-7.8257,-7.8273,-7.8398,-7.8439,-7.8538,-7.8544,-7.868,-7.871,-7.8718,-7.8832,-7.8824,-7.8951,-7.8942,-7.9142,-7.9115,-7.9123,-7.9117,-7.9252,-7.924,-7.9694,-7.9752,-7.9349,-7.9353,-7.9356,0,-7.8223,-7.8341,-7.8406,-7.8474,-7.8513,-7.8624,-7.8689,-7.8666,-7.8737,-7.8816,-7.8905,-7.9014,-7.91,-7.9285,-7.93,-7.9397,-7.9372,-7.9524,-7.9386,-7.9393,-7.9374,-7.9367,-7.9378,-7.9552,-7.9556,-7.956,-7.9563,0,-7.8579,-7.8573,-7.8672,-7.8771,-7.8851,-7.8927,-7.8996,-7.9055,-7.9039,-7.9121,-7.9238,-7.9305,-7.9436,-7.9544,-7.9637,-7.9666,-7.9612,-7.9607,-7.9643,-7.9655,-7.9655,-7.9657,-7.9197,-7.9596,-7.9593,-7.959,-7.9589,-7.9587,-7.8836,-7.8938,-7.9,-7.9111,-7.9161,-7.9227,-7.9323,-7.9341,-7.9439,-7.9546,-7.9526,-7.9657,-7.9714,-7.9833,-7.9872,-7.9972,-7.9917,-7.9969,-7.9983,-7.9996,-8.0012,-7.9639,-7.9989,-7.9988,-7.9987,-7.9986,-7.9985,0,-7.9189,-7.9225,-7.9327,-7.9428,-7.9515,-7.9459,-7.9532,-7.9608,-7.9725,-7.9784,-7.9871,-8.0005,-8.0109,-8.0134,-8.0233,-8.0309,-8.0287,-8.0336,-8.033,-8.0337,-8.0056,-8.0014,-8.0352,-8.0352,-8.0352,-8.0352,-8.0352,-8.0352,-7.9382,-7.9551,-7.9553,-7.9746,-7.9779,-7.991,-7.9957,-8.0017,-8.0064,-8.0217,-8.0305,-8.0321,-8.0365,-8.0468,-8.056,-8.0564,-8.0604,-8.0663,-8.0658,-8.0394,-8.0357,-8.0322,-8.0283,-8.0672,-8.0672,-8.0931,-8.0933,-8.0935]}]]